Time,TemperatureF,DewpointF,PressureIn,WindDirection,WindDirectionDegrees,WindSpeedMPH,WindSpeedGustMPH,Humidity,HourlyPrecipIn,Conditions,Clouds,dailyrainin,SoftwareType,DateUTC
2013-11-04 00:12:00,51.0,-99.9,-100.00,SE,140,9.0,-999.0,-999,0.00,,,0.00,,2013-11-04 06:12:00,
2013-11-04 00:23:00,51.0,-99.9,-100.00,SE,140,9.0,-999.0,-999,0.00,,,0.00,,2013-11-04 06:23:00,
2013-11-04 00:42:00,51.0,-99.9,-100.00,SE,140,7.0,-999.0,-999,0.00,,,0.00,,2013-11-04 06:42:00,
2013-11-04 00:52:00,51.0,-99.9,-100.00,SE,140,7.0,-999.0,-999,0.00,,,0.00,,2013-11-04 06:52:00,
2013-11-04 01:11:00,51.0,-99.9,-100.00,SE,137,7.0,-999.0,-999,0.00,,,0.00,,2013-11-04 07:11:00,
2013-11-04 01:22:00,51.0,-99.9,-100.00,SE,137,7.0,-999.0,-999,0.00,,,0.00,,2013-11-04 07:22:00,
2013-11-04 01:43:00,51.0,-99.9,-100.00,SSE,151,9.0,-999.0,-999,0.00,,,0.00,,2013-11-04 07:43:00,
2013-11-04 01:52:00,51.0,-99.9,-100.00,SSE,151,9.0,-999.0,-999,0.00,,,0.00,,2013-11-04 07:52:00,
2013-11-04 02:12:00,51.0,-99.9,-100.00,SE,141,6.0,-999.0,-999,0.00,,,0.00,,2013-11-04 08:12:00,
2013-11-04 02:22:00,51.0,-99.9,-100.00,SE,141,6.0,-999.0,-999,0.00,,,0.00,,2013-11-04 08:22:00,
2013-11-04 02:42:00,50.0,-99.9,-100.00,SE,144,6.0,-999.0,-999,0.00,,,0.00,,2013-11-04 08:42:00,
2013-11-04 02:52:00,50.0,-99.9,-100.00,SE,144,6.0,-999.0,-999,0.00,,,0.00,,2013-11-04 08:52:00,
2013-11-04 03:12:00,50.0,-99.9,-100.00,SE,143,8.0,-999.0,-999,0.00,,,0.00,,2013-11-04 09:12:00,
2013-11-04 03:22:00,50.0,-99.9,-100.00,SE,143,8.0,-999.0,-999,0.00,,,0.00,,2013-11-04 09:22:00,
2013-11-04 03:43:00,50.0,-99.9,-100.00,SE,139,7.0,-999.0,-999,0.00,,,0.00,,2013-11-04 09:43:00,
2013-11-04 03:53:00,50.0,-99.9,-100.00,SE,139,7.0,-999.0,-999,0.00,,,0.00,,2013-11-04 09:53:00,
2013-11-04 04:12:00,50.0,-99.9,-100.00,SSE,148,6.0,-999.0,-999,0.00,,,0.00,,2013-11-04 10:12:00,
2013-11-04 04:23:00,50.0,-99.9,-100.00,SSE,148,6.0,-999.0,-999,0.00,,,0.00,,2013-11-04 10:23:00,
2013-11-04 04:43:00,49.0,-99.9,-100.00,SE,136,7.0,-999.0,-999,0.00,,,0.00,,2013-11-04 10:43:00,
2013-11-04 04:52:00,49.0,-99.9,-100.00,SE,136,7.0,-999.0,-999,0.00,,,0.00,,2013-11-04 10:52:00,
2013-11-04 05:12:00,49.0,-99.9,-100.00,SE,141,7.0,-999.0,-999,0.00,,,0.00,,2013-11-04 11:12:00,
2013-11-04 05:22:00,49.0,-99.9,-100.00,SE,141,7.0,-999.0,-999,0.00,,,0.00,,2013-11-04 11:22:00,
2013-11-04 05:43:00,49.0,-99.9,-100.00,SE,145,6.0,-999.0,-999,0.00,,,0.00,,2013-11-04 11:43:00,
2013-11-04 05:52:00,49.0,-99.9,-100.00,SE,145,6.0,-999.0,-999,0.00,,,0.00,,2013-11-04 11:52:00,
2013-11-04 06:12:00,49.0,-99.9,-100.00,SE,145,7.0,-999.0,-999,0.00,,,0.00,,2013-11-04 12:12:00,
2013-11-04 06:22:00,49.0,-99.9,-100.00,SE,145,7.0,-999.0,-999,0.00,,,0.00,,2013-11-04 12:22:00,
2013-11-04 06:42:00,50.0,-99.9,-100.00,SSE,150,7.0,-999.0,-999,0.00,,,0.00,,2013-11-04 12:42:00,
2013-11-04 06:52:00,50.0,-99.9,-100.00,SSE,150,7.0,-999.0,-999,0.00,,,0.00,,2013-11-04 12:52:00,
2013-11-04 07:12:00,49.0,-99.9,-100.00,SE,139,7.0,-999.0,-999,0.00,,,0.00,,2013-11-04 13:12:00,
2013-11-04 07:22:00,49.0,-99.9,-100.00,SE,139,7.0,-999.0,-999,0.00,,,0.00,,2013-11-04 13:22:00,
2013-11-04 07:42:00,49.0,-99.9,-100.00,SE,138,7.0,-999.0,-999,0.00,,,0.00,,2013-11-04 13:42:00,
2013-11-04 07:52:00,49.0,-99.9,-100.00,SE,138,7.0,-999.0,-999,0.00,,,0.00,,2013-11-04 13:52:00,
2013-11-04 08:11:00,50.0,-99.9,-100.00,SSE,147,7.0,-999.0,-999,0.00,,,0.00,,2013-11-04 14:11:00,
2013-11-04 08:22:00,50.0,-99.9,-100.00,SSE,147,7.0,-999.0,-999,0.00,,,0.00,,2013-11-04 14:22:00,
2013-11-04 08:42:00,50.0,-99.9,-100.00,SE,146,8.0,-999.0,-999,0.00,,,0.00,,2013-11-04 14:42:00,
2013-11-04 08:52:00,50.0,-99.9,-100.00,SE,146,8.0,-999.0,-999,0.00,,,0.00,,2013-11-04 14:52:00,
2013-11-04 09:11:00,50.0,-99.9,-100.00,SE,134,9.0,-999.0,-999,0.00,,,0.00,,2013-11-04 15:11:00,
2013-11-04 09:22:00,50.0,-99.9,-100.00,SE,134,9.0,-999.0,-999,0.00,,,0.00,,2013-11-04 15:22:00,
2013-11-04 09:30:00,53.0,-99.9,-100.00,SE,146,10.0,-999.0,-999,0.00,,,0.00,,2013-11-04 15:30:00,
2013-11-04 09:42:00,51.0,-99.9,-100.00,SE,143,7.0,-999.0,-999,0.00,,,0.00,,2013-11-04 15:42:00,
2013-11-04 09:52:00,51.0,-99.9,-100.00,SE,143,7.0,-999.0,-999,0.00,,,0.00,,2013-11-04 15:52:00,
2013-11-04 10:13:00,53.0,-99.9,-100.00,SE,146,10.0,-999.0,-999,0.00,,,0.00,,2013-11-04 16:13:00,
2013-11-04 10:23:00,53.0,-99.9,-100.00,SE,146,10.0,-999.0,-999,0.00,,,0.00,,2013-11-04 16:23:00,
2013-11-04 11:12:00,53.0,-99.9,-100.00,SE,141,9.0,-999.0,-999,0.00,,,0.00,,2013-11-04 17:12:00,
2013-11-04 11:22:00,53.0,-99.9,-100.00,SE,141,9.0,-999.0,-999,0.00,,,0.00,,2013-11-04 17:22:00,
2013-11-04 11:42:00,53.0,-99.9,-100.00,SE,135,10.0,-999.0,-999,0.00,,,0.00,,2013-11-04 17:42:00,
2013-11-04 11:53:00,53.0,-99.9,-100.00,SE,135,10.0,-999.0,-999,0.00,,,0.00,,2013-11-04 17:53:00,
2013-11-04 12:12:00,53.0,-99.9,-100.00,SE,137,9.0,-999.0,-999,0.00,,,0.00,,2013-11-04 18:12:00,
2013-11-04 12:23:00,53.0,-99.9,-100.00,SE,137,9.0,-999.0,-999,0.00,,,0.00,,2013-11-04 18:23:00,
2013-11-04 12:42:00,54.0,-99.9,-100.00,SE,134,7.0,-999.0,-999,0.00,,,0.00,,2013-11-04 18:42:00,
2013-11-04 12:52:00,54.0,-99.9,-100.00,SE,134,7.0,-999.0,-999,0.00,,,0.00,,2013-11-04 18:52:00,
2013-11-04 13:12:00,56.0,-99.9,-100.00,SE,137,8.0,-999.0,-999,0.00,,,0.00,,2013-11-04 19:12:00,
2013-11-04 13:22:00,56.0,-99.9,-100.00,SE,137,8.0,-999.0,-999,0.00,,,0.00,,2013-11-04 19:22:00,
2013-11-04 13:42:00,57.0,-99.9,-100.00,SE,142,8.0,-999.0,-999,0.00,,,0.00,,2013-11-04 19:42:00,
2013-11-04 13:52:00,57.0,-99.9,-100.00,SE,142,8.0,-999.0,-999,0.00,,,0.00,,2013-11-04 19:52:00,
2013-11-04 14:11:00,58.0,-99.9,-100.00,SSE,149,11.0,-999.0,-999,0.00,,,0.00,,2013-11-04 20:11:00,
2013-11-04 14:22:00,58.0,-99.9,-100.00,SSE,149,11.0,-999.0,-999,0.00,,,0.00,,2013-11-04 20:22:00,
2013-11-04 14:42:00,59.0,-99.9,-100.00,SE,136,7.0,-999.0,-999,0.00,,,0.00,,2013-11-04 20:42:00,
2013-11-04 14:53:00,59.0,-99.9,-100.00,SE,136,7.0,-999.0,-999,0.00,,,0.00,,2013-11-04 20:53:00,
2013-11-04 15:12:00,60.0,-99.9,-100.00,SE,132,5.0,-999.0,-999,0.00,,,0.00,,2013-11-04 21:12:00,
2013-11-04 15:22:00,60.0,-99.9,-100.00,SE,132,5.0,-999.0,-999,0.00,,,0.00,,2013-11-04 21:22:00,
2013-11-04 15:45:00,61.0,-99.9,-100.00,ESE,122,2.0,-999.0,-999,0.00,,,0.00,,2013-11-04 21:45:00,
2013-11-04 15:54:00,61.0,-99.9,-100.00,ESE,122,2.0,-999.0,-999,0.00,,,0.00,,2013-11-04 21:54:00,
2013-11-04 16:14:00,61.0,-99.9,-100.00,ESE,120,3.0,-999.0,-999,0.00,,,0.00,,2013-11-04 22:14:00,
2013-11-04 16:23:00,61.0,-99.9,-100.00,ESE,120,3.0,-999.0,-999,0.00,,,0.00,,2013-11-04 22:23:00,
2013-11-04 16:43:00,61.0,-99.9,-100.00,SE,130,3.0,-999.0,-999,0.00,,,0.00,,2013-11-04 22:43:00,
2013-11-04 16:53:00,61.0,-99.9,-100.00,SE,130,3.0,-999.0,-999,0.00,,,0.00,,2013-11-04 22:53:00,
2013-11-04 17:13:00,60.0,-99.9,-100.00,SE,131,3.0,-999.0,-999,0.00,,,0.00,,2013-11-04 23:13:00,
2013-11-04 17:23:00,60.0,-99.9,-100.00,SE,131,3.0,-999.0,-999,0.00,,,0.00,,2013-11-04 23:23:00,
2013-11-04 17:43:00,60.0,-99.9,-100.00,SE,135,2.0,-999.0,-999,0.00,,,0.00,,2013-11-04 23:43:00,
2013-11-04 17:53:00,60.0,-99.9,-100.00,SE,135,2.0,-999.0,-999,0.00,,,0.00,,2013-11-04 23:53:00,
2013-11-04 18:12:00,58.0,-99.9,-100.00,SE,129,0.0,-999.0,-999,0.00,,,0.00,,2013-11-05 00:12:00,
2013-11-04 18:22:00,58.0,-99.9,-100.00,SE,129,0.0,-999.0,-999,0.00,,,0.00,,2013-11-05 00:22:00,
2013-11-04 18:42:00,57.0,-99.9,-100.00,SSW,204,1.0,-999.0,-999,0.00,,,0.00,,2013-11-05 00:42:00,
2013-11-04 18:52:00,57.0,-99.9,-100.00,SSW,204,1.0,-999.0,-999,0.00,,,0.00,,2013-11-05 00:52:00,
2013-11-04 19:11:00,56.0,-99.9,-100.00,SW,218,0.0,-999.0,-999,0.00,,,0.00,,2013-11-05 01:11:00,
2013-11-04 19:22:00,56.0,-99.9,-100.00,SW,218,0.0,-999.0,-999,0.00,,,0.00,,2013-11-05 01:22:00,
2013-11-04 19:42:00,57.0,-99.9,-100.00,SE,140,2.0,-999.0,-999,0.00,,,0.00,,2013-11-05 01:42:00,
2013-11-04 19:52:00,57.0,-99.9,-100.00,SE,140,2.0,-999.0,-999,0.00,,,0.00,,2013-11-05 01:52:00,
2013-11-04 20:11:00,58.0,-99.9,-100.00,SE,125,6.0,-999.0,-999,0.00,,,0.00,,2013-11-05 02:11:00,
2013-11-04 20:23:00,58.0,-99.9,-100.00,SE,125,6.0,-999.0,-999,0.00,,,0.00,,2013-11-05 02:23:00,
2013-11-04 20:42:00,59.0,-99.9,-100.00,ESE,120,4.0,-999.0,-999,0.00,,,0.00,,2013-11-05 02:42:00,
2013-11-04 20:52:00,59.0,-99.9,-100.00,ESE,120,4.0,-999.0,-999,0.00,,,0.00,,2013-11-05 02:52:00,
2013-11-04 21:12:00,58.0,-99.9,-100.00,SE,135,6.0,-999.0,-999,0.00,,,0.00,,2013-11-05 03:12:00,
2013-11-04 21:22:00,58.0,-99.9,-100.00,SE,135,6.0,-999.0,-999,0.00,,,0.00,,2013-11-05 03:22:00,
2013-11-04 21:44:00,58.0,-99.9,-100.00,SE,126,4.0,-999.0,-999,0.00,,,0.00,,2013-11-05 03:44:00,
2013-11-04 21:54:00,58.0,-99.9,-100.00,SE,126,4.0,-999.0,-999,0.00,,,0.00,,2013-11-05 03:54:00,
2013-11-04 22:14:00,57.0,-99.9,-100.00,SE,134,3.0,-999.0,-999,0.00,,,0.00,,2013-11-05 04:14:00,
2013-11-04 22:23:00,57.0,-99.9,-100.00,SE,134,3.0,-999.0,-999,0.00,,,0.00,,2013-11-05 04:23:00,
2013-11-04 22:44:00,57.0,-99.9,-100.00,SE,133,3.0,-999.0,-999,0.00,,,0.00,,2013-11-05 04:44:00,
2013-11-04 22:53:00,57.0,-99.9,-100.00,SE,133,3.0,-999.0,-999,0.00,,,0.00,,2013-11-05 04:53:00,
2013-11-04 23:13:00,57.0,-99.9,-100.00,SE,127,2.0,-999.0,-999,0.00,,,0.00,,2013-11-05 05:13:00,
2013-11-04 23:23:00,57.0,-99.9,-100.00,SE,127,2.0,-999.0,-999,0.00,,,0.00,,2013-11-05 05:23:00,
2013-11-04 23:44:00,57.0,-99.9,-100.00,SE,124,3.0,-999.0,-999,0.00,,,0.00,,2013-11-05 05:44:00,
2013-11-04 23:54:00,57.0,-99.9,-100.00,SE,124,3.0,-999.0,-999,0.00,,,0.00,,2013-11-05 05:54:00,